COSMOS 397 DEB

Satellite information

Favourite Embed

Satellite Type and Status

DEBRISIN ORBIT

Key statistics

Satellite COSMOS 397 DEB at a glance.

Uptime

19916

Days in orbit

Revolutions

≈ 14.3

Per day

Orbit

LEO

Low Earth Orbit

Inclination

65.7

Latest

Satellite identification and parameters

Extended collection of information and parameters for COSMOS 397 DEB.

Object identification

Identified? True

Debris? True

Object name: COSMOS 397 DEB

International designator: 1971-015N

Object number (NORAD): 5019

Object ID (CCSDS): 5019

Country: COMMONWEALTH OF INDEPENDENT STATES (CIS)

Current information (Y/N): Y

RCS size: SMALL

Orbital parameters

Period: 100.855 minutes

Inclination: 65.6808 deg

SMA: 7177.248 km

Apoapsis: 1085.846 km

Periapsis: 512.379 km

RAAN: 201.4969 deg

Eccentricy: 0.03995033

Argument of periapsis: 165.8267 deg

Mean anomaly: 195.4437 deg

Mean motion: 14.27795029 rev/day

Mean motion (dot): 0.00007942 rev/day2

B* drag term: 0.0013724395 1/REarth

Two-line elements (TLE)

Creation date: Sept. 4, 2025, 10:13 a.m.

Reference frame: TEME

Reference center: EARTH

Epoch: Sept. 4, 2025, 6:23 a.m. UTC

TLE line 0: 0 COSMOS 397 DEB

TLE line 1: 1 05019U 71015N 25247.26642889 .00007942 00000-0 13724-2 0 9995

TLE line 2: 2 05019 65.6808 201.4969 0399503 165.8267 195.4437 14.27795029671312

Live tracking on map

Real-time ground track for satellite COSMOS 397 DEB.

In-orbit conjunctions

A list of the most updated potential collisions computed for object COSMOS 397 DEB.

Target Orbit TCA Probability of collision Miss distance Type
COSMOS 2221 LEO 2025-08-08 09:48:30 0.0006613775 496.0 (m) PAYLOAD

Associated space launch

The I2P satellites were the first soviet coorbital ASAT system.

COSMOS 397 DEB was lifted into orbit during the mission ‘Tsiklon-2 | I2P 6’, on board a Tsiklon-2 space rocket.

The launch took place on Feb. 25, 1971, 11:11 a.m. from 90/20.

For more information about the launch, click the button.

Launch to space Tsiklon-2 | I2P 6
Tsiklon-2 | I2P 6

Agency: N/A

Status: Launch Successful

Launch date: Feb. 25, 1971, 11:11 a.m. UTC

Rocket: Tsiklon-2

Launch pad: 90/20

Location: Baikonur Cosmodrome, Republic of Kazakhstan

...

Latest news about this satellite

There are no fresh news available about this satellite. Check back as we update our databases every day.


Newsletter sign-up

Weekly statistics, charts and insights to help you stay on top of the space industry.